Retour au catalogue

SDA_1665

ActifMilitairePO
NORAD 65975·PAYLOAD·🇺🇸 United States

Lancé Oct 15, 2025 depuis Vandenberg Space Force Base

Loading…

Prochains Passages (prochaines 24 heures)

TLE

FraisSource: Space-Track

Époque: Sep 14, 2026, 15:14 UTC

1 65975U 25230B   26257.63505088  .00000139  00000-0  11823-3 0  9992
2 65975  81.3005 129.4036 0001006  63.5475 296.5783 13.82052525 46152

Suivez SDA_1665 en temps réel avec AllMySat

Download on the App Store